Time,TemperatureF,DewpointF,PressureIn,WindDirection,WindDirectionDegrees,WindSpeedMPH,WindSpeedGustMPH,Humidity,HourlyPrecipIn,Conditions,Clouds,dailyrainin,SoftwareType,DateUTC
2013-12-17 00:01:00,39.4,31.8,30.33,SW,214,9.3,9.3,74,0.00,RA,,0.00,WeatherDisplay:10.37,2013-12-17 05:01:00,
2013-12-17 00:03:00,39.4,31.8,30.33,SW,234,10.6,10.6,74,0.00,RA,,0.00,WeatherDisplay:10.37,2013-12-17 05:03:00,
2013-12-17 00:08:00,39.3,31.7,30.33,SSE,165,11.5,11.5,74,0.00,RA,,0.00,WeatherDisplay:10.37,2013-12-17 05:08:00,
2013-12-17 00:13:00,39.4,31.8,30.33,SSE,166,5.8,5.8,74,0.00,CLR,,0.00,WeatherDisplay:10.37,2013-12-17 05:13:00,
2013-12-17 00:18:00,39.4,31.8,30.33,SW,220,10.6,10.6,74,0.00,CLR,,0.00,WeatherDisplay:10.37,2013-12-17 05:18:00,
2013-12-17 00:23:00,39.4,31.8,30.32,South,180,8.1,8.1,74,0.00,CLR,,0.00,WeatherDisplay:10.37,2013-12-17 05:23:00,
2013-12-17 00:28:00,39.4,31.8,30.32,South,176,13.8,13.8,74,0.00,CLR,,0.00,WeatherDisplay:10.37,2013-12-17 05:28:00,
2013-12-17 00:33:00,39.4,31.8,30.32,SW,233,13.8,13.8,74,0.00,CLR,,0.00,WeatherDisplay:10.37,2013-12-17 05:33:00,
2013-12-17 00:38:00,39.4,31.8,30.31,SSW,198,6.9,6.9,74,0.00,CLR,,0.00,WeatherDisplay:10.37,2013-12-17 05:38:00,
2013-12-17 00:43:00,39.4,31.5,30.32,SSW,195,8.1,8.1,73,0.00,CLR,,0.00,WeatherDisplay:10.37,2013-12-17 05:43:00,
2013-12-17 00:48:00,39.3,31.7,30.32,SSW,200,15.0,15.0,74,0.00,CLR,,0.00,WeatherDisplay:10.37,2013-12-17 05:48:00,
2013-12-17 00:53:00,39.2,31.6,30.32,SSW,200,11.5,11.5,74,0.00,CLR,,0.00,WeatherDisplay:10.37,2013-12-17 05:53:00,
2013-12-17 00:58:00,39.2,31.6,30.32,SSW,203,13.8,13.8,74,0.00,CLR,,0.00,WeatherDisplay:10.37,2013-12-17 05:58:00,
2013-12-17 01:03:00,39.3,31.7,30.32,SW,220,15.0,15.0,74,0.00,CLR,,0.00,WeatherDisplay:10.37,2013-12-17 06:03:00,
2013-12-17 01:08:00,39.4,31.8,30.31,SW,216,16.1,16.1,74,0.00,CLR,,0.00,WeatherDisplay:10.37,2013-12-17 06:08:00,
2013-12-17 01:13:00,39.5,31.6,30.31,SSW,205,10.4,10.4,73,0.00,CLR,,0.00,WeatherDisplay:10.37,2013-12-17 06:13:00,
2013-12-17 01:18:00,39.7,31.8,30.31,SSW,205,4.6,4.6,73,0.00,CLR,,0.00,WeatherDisplay:10.37,2013-12-17 06:18:00,
2013-12-17 01:23:00,39.7,31.8,30.31,SSE,156,9.2,9.2,73,0.00,CLR,,0.00,WeatherDisplay:10.37,2013-12-17 06:23:00,
2013-12-17 01:28:00,39.7,31.8,30.31,SSW,210,6.9,6.9,73,0.00,CLR,,0.00,WeatherDisplay:10.37,2013-12-17 06:28:00,
2013-12-17 01:33:00,39.7,31.8,30.30,SW,216,11.5,11.5,73,0.00,CLR,,0.00,WeatherDisplay:10.37,2013-12-17 06:33:00,
2013-12-17 01:38:00,39.6,31.7,30.30,South,187,9.2,9.2,73,0.00,CLR,,0.00,WeatherDisplay:10.37,2013-12-17 06:38:00,
2013-12-17 01:43:00,39.5,31.6,30.30,SW,227,15.0,15.0,73,0.00,CLR,,0.00,WeatherDisplay:10.37,2013-12-17 06:43:00,
2013-12-17 01:48:00,39.5,31.6,30.30,WSW,241,11.5,11.5,73,0.00,CLR,,0.00,WeatherDisplay:10.37,2013-12-17 06:48:00,
2013-12-17 01:53:00,39.4,31.5,30.30,SW,225,12.0,12.0,73,0.00,CLR,,0.00,WeatherDisplay:10.37,2013-12-17 06:53:00,
2013-12-17 01:58:00,39.3,31.7,30.30,SSW,200,13.8,13.8,74,0.00,CLR,,0.00,WeatherDisplay:10.37,2013-12-17 06:58:00,
2013-12-17 02:03:00,39.2,31.6,30.30,SW,233,11.5,11.5,74,0.00,CLR,,0.00,WeatherDisplay:10.37,2013-12-17 07:03:00,
2013-12-17 02:08:00,39.0,31.4,30.31,SSW,200,15.0,15.0,74,0.00,CLR,,0.00,WeatherDisplay:10.37,2013-12-17 07:08:00,
2013-12-17 02:13:00,38.9,31.6,30.31,South,178,11.5,11.5,75,0.00,CLR,,0.00,WeatherDisplay:10.37,2013-12-17 07:13:00,
2013-12-17 02:18:00,38.8,31.2,30.31,SSW,204,10.9,10.9,74,0.00,CLR,,0.00,WeatherDisplay:10.37,2013-12-17 07:18:00,
2013-12-17 02:23:00,38.8,31.2,30.31,SW,235,10.6,10.6,74,0.00,CLR,,0.00,WeatherDisplay:10.37,2013-12-17 07:23:00,
2013-12-17 02:28:00,38.9,31.3,30.31,SSW,208,16.1,16.1,74,0.00,CLR,,0.00,WeatherDisplay:10.37,2013-12-17 07:28:00,
2013-12-17 02:33:00,39.0,31.4,30.31,SE,141,9.2,9.2,74,0.00,CLR,,0.00,WeatherDisplay:10.37,2013-12-17 07:33:00,
2013-12-17 02:38:00,39.0,31.4,30.32,WSW,255,4.6,4.6,74,0.00,CLR,,0.00,WeatherDisplay:10.37,2013-12-17 07:38:00,
2013-12-17 02:43:00,39.0,31.1,30.32,SW,225,2.3,2.3,73,0.00,CLR,,0.00,WeatherDisplay:10.37,2013-12-17 07:43:00,
2013-12-17 02:48:00,39.0,31.4,30.32,SW,227,5.8,5.8,74,0.00,CLR,,0.00,WeatherDisplay:10.37,2013-12-17 07:48:00,
2013-12-17 02:53:00,38.9,31.0,30.32,SW,233,11.5,11.5,73,0.00,CLR,,0.00,WeatherDisplay:10.37,2013-12-17 07:53:00,
2013-12-17 02:58:00,38.9,31.3,30.32,South,191,11.5,11.5,74,0.00,CLR,,0.00,WeatherDisplay:10.37,2013-12-17 07:58:00,
2013-12-17 03:03:00,38.9,31.0,30.32,WNW,303,3.5,3.5,73,0.00,CLR,,0.00,WeatherDisplay:10.37,2013-12-17 08:03:00,
2013-12-17 03:08:00,39.0,31.1,30.32,SSW,198,8.1,8.1,73,0.00,CLR,,0.00,WeatherDisplay:10.37,2013-12-17 08:08:00,
2013-12-17 03:13:00,39.0,31.1,30.32,SSW,208,16.1,16.1,73,0.00,CLR,,0.00,WeatherDisplay:10.37,2013-12-17 08:13:00,
2013-12-17 03:18:00,39.0,31.4,30.32,SW,218,16.0,16.0,74,0.00,CLR,,0.00,WeatherDisplay:10.37,2013-12-17 08:18:00,
2013-12-17 03:23:00,39.0,31.1,30.33,SSW,193,9.2,9.2,73,0.00,CLR,,0.00,WeatherDisplay:10.37,2013-12-17 08:23:00,
2013-12-17 03:28:00,39.1,31.2,30.32,SSW,210,13.8,13.8,73,0.00,CLR,,0.00,WeatherDisplay:10.37,2013-12-17 08:28:00,
2013-12-17 03:33:00,39.2,31.3,30.32,SSE,147,18.4,18.4,73,0.00,CLR,,0.00,WeatherDisplay:10.37,2013-12-17 08:33:00,
2013-12-17 03:38:00,39.3,31.0,30.32,WSW,243,18.4,18.4,72,0.00,CLR,,0.00,WeatherDisplay:10.37,2013-12-17 08:38:00,
2013-12-17 03:43:00,39.4,31.1,30.32,SSW,210,21.3,21.3,72,0.00,CLR,,0.00,WeatherDisplay:10.37,2013-12-17 08:43:00,
2013-12-17 03:48:00,39.4,31.1,30.32,SSW,207,25.3,25.3,72,0.00,,,0.00,WeatherDisplay:10.37,2013-12-17 08:48:00,
2013-12-17 03:53:00,39.5,31.2,30.32,SSW,206,18.4,18.4,72,0.00,CLR,,0.00,WeatherDisplay:10.37,2013-12-17 08:53:00,
2013-12-17 03:58:00,39.5,30.9,30.32,SSW,208,17.3,17.3,71,0.00,,,0.00,WeatherDisplay:10.37,2013-12-17 08:58:00,
2013-12-17 04:03:00,39.5,30.9,30.32,SW,218,24.2,24.2,71,0.00,,,0.00,WeatherDisplay:10.37,2013-12-17 09:03:00,
2013-12-17 04:08:00,39.6,31.0,30.32,SSW,213,21.3,21.3,71,0.00,CLR,,0.00,WeatherDisplay:10.37,2013-12-17 09:08:00,
2013-12-17 04:13:00,39.6,30.6,30.31,SSW,196,19.6,19.6,70,0.00,CLR,,0.00,WeatherDisplay:10.37,2013-12-17 09:13:00,
2013-12-17 04:18:00,39.6,30.6,30.31,WSW,257,11.5,11.5,70,0.00,CLR,,0.00,WeatherDisplay:10.37,2013-12-17 09:18:00,
2013-12-17 04:23:00,39.6,30.6,30.31,SSW,202,21.9,21.9,70,0.00,CLR,,0.00,WeatherDisplay:10.37,2013-12-17 09:23:00,
2013-12-17 04:28:00,39.6,30.3,30.30,SW,219,21.9,21.9,69,0.00,CLR,,0.00,WeatherDisplay:10.37,2013-12-17 09:28:00,
2013-12-17 04:33:00,39.7,30.4,30.30,SW,223,10.4,11.7,69,0.00,,,0.00,WeatherDisplay:10.37,2013-12-17 09:33:00,
2013-12-17 04:38:00,39.7,30.0,30.30,WSW,239,18.4,18.4,68,0.00,CLR,,0.00,WeatherDisplay:10.37,2013-12-17 09:38:00,
2013-12-17 04:43:00,39.7,30.0,30.30,SSW,212,23.0,23.0,68,0.00,CLR,,0.00,WeatherDisplay:10.37,2013-12-17 09:43:00,
2013-12-17 04:48:00,39.8,30.5,30.30,SW,231,25.3,25.3,69,0.00,,,0.00,WeatherDisplay:10.37,2013-12-17 09:48:00,
2013-12-17 04:53:00,39.7,30.0,30.30,SW,224,19.9,19.9,68,0.00,,,0.00,WeatherDisplay:10.37,2013-12-17 09:53:00,
2013-12-17 04:58:00,39.7,30.0,30.30,SW,223,17.3,17.3,68,0.00,CLR,,0.00,WeatherDisplay:10.37,2013-12-17 09:58:00,
2013-12-17 05:03:00,39.6,30.3,30.30,SSW,196,17.3,17.3,69,0.00,,,0.00,WeatherDisplay:10.37,2013-12-17 10:03:00,
2013-12-17 05:08:00,39.5,29.8,30.30,SW,227,18.6,18.6,68,0.00,,,0.00,WeatherDisplay:10.37,2013-12-17 10:08:00,
2013-12-17 05:13:00,39.5,29.8,30.30,SSW,206,24.2,24.2,68,0.00,CLR,,0.00,WeatherDisplay:10.37,2013-12-17 10:13:00,
2013-12-17 05:19:00,39.5,30.2,30.30,SW,214,18.6,18.6,69,0.00,CLR,,0.00,WeatherDisplay:10.37,2013-12-17 10:19:00,
2013-12-17 05:24:00,39.4,29.7,30.30,SSW,210,16.1,16.1,68,0.00,CLR,,0.00,WeatherDisplay:10.37,2013-12-17 10:24:00,
2013-12-17 05:29:00,39.4,29.7,30.30,WSW,250,18.4,18.4,68,0.00,CLR,,0.00,WeatherDisplay:10.37,2013-12-17 10:29:00,
2013-12-17 05:34:00,39.3,29.6,30.30,SW,216,11.5,12.3,68,0.00,,,0.00,WeatherDisplay:10.37,2013-12-17 10:34:00,
2013-12-17 05:39:00,39.3,30.0,30.30,South,186,13.8,13.8,69,0.00,CLR,,0.00,WeatherDisplay:10.37,2013-12-17 10:39:00,
2013-12-17 05:44:00,39.2,29.9,30.30,WSW,252,17.3,17.3,69,0.00,CLR,,0.00,WeatherDisplay:10.37,2013-12-17 10:44:00,
2013-12-17 05:49:00,39.0,29.7,30.30,SW,229,10.4,10.4,69,0.00,CLR,,0.00,WeatherDisplay:10.37,2013-12-17 10:49:00,
2013-12-17 05:54:00,38.9,29.9,30.30,SW,234,23.0,23.0,70,0.00,CLR,,0.00,WeatherDisplay:10.37,2013-12-17 10:54:00,
2013-12-17 05:59:00,38.9,29.9,30.30,WSW,256,18.4,18.4,70,0.00,CLR,,0.00,WeatherDisplay:10.37,2013-12-17 10:59:00,
2013-12-17 06:04:00,38.8,29.8,30.30,SSW,200,18.4,18.4,70,0.00,CLR,,0.00,WeatherDisplay:10.37,2013-12-17 11:04:00,
2013-12-17 06:09:00,38.7,29.8,30.30,SSW,210,13.8,13.8,70,0.00,CLR,,0.00,WeatherDisplay:10.37,2013-12-17 11:09:00,
2013-12-17 06:14:00,38.7,29.8,30.29,WSW,253,16.1,16.1,70,0.00,CLR,,0.00,WeatherDisplay:10.37,2013-12-17 11:14:00,
2013-12-17 06:19:00,38.6,29.7,30.29,South,175,13.8,13.8,70,0.00,CLR,,0.00,WeatherDisplay:10.37,2013-12-17 11:19:00,
2013-12-17 06:24:00,38.6,30.0,30.30,SSE,164,15.0,15.0,71,0.00,CLR,,0.00,WeatherDisplay:10.37,2013-12-17 11:24:00,
2013-12-17 06:29:00,38.6,30.0,30.29,South,173,10.4,10.4,71,0.00,CLR,,0.00,WeatherDisplay:10.37,2013-12-17 11:29:00,
2013-12-17 06:34:00,38.6,30.0,30.29,SSW,213,11.5,11.8,71,0.00,CLR,,0.00,WeatherDisplay:10.37,2013-12-17 11:34:00,
2013-12-17 06:39:00,38.6,29.7,30.29,South,189,10.4,10.4,70,0.00,CLR,,0.00,WeatherDisplay:10.37,2013-12-17 11:39:00,
2013-12-17 06:44:00,38.6,30.0,30.29,SSW,195,12.7,12.7,71,0.00,CLR,,0.00,WeatherDisplay:10.37,2013-12-17 11:44:00,
2013-12-17 06:49:00,38.7,29.8,30.29,South,187,15.0,15.0,70,0.00,CLR,,0.00,WeatherDisplay:10.37,2013-12-17 11:49:00,
2013-12-17 06:54:00,38.7,29.8,30.29,SSW,192,8.1,8.1,70,0.00,CLR,,0.00,WeatherDisplay:10.37,2013-12-17 11:54:00,
2013-12-17 06:59:00,38.6,30.0,30.29,South,171,11.5,11.5,71,0.00,CLR,,0.00,WeatherDisplay:10.37,2013-12-17 11:59:00,
2013-12-17 07:04:00,38.7,29.8,30.29,South,173,17.3,17.3,70,0.00,CLR,,0.00,WeatherDisplay:10.37,2013-12-17 12:04:00,
2013-12-17 07:09:00,38.7,29.8,30.29,SW,229,15.0,15.0,70,0.00,CLR,,0.00,WeatherDisplay:10.37,2013-12-17 12:09:00,
2013-12-17 07:14:00,38.7,30.1,30.29,SSW,208,11.5,11.5,71,0.00,CLR,,0.00,WeatherDisplay:10.37,2013-12-17 12:14:00,
2013-12-17 07:19:00,38.8,29.8,30.29,South,169,15.0,15.0,70,0.00,CLR,,0.00,WeatherDisplay:10.37,2013-12-17 12:19:00,
2013-12-17 07:24:00,38.8,29.8,30.30,South,177,11.5,11.5,70,0.00,CLR,,0.00,WeatherDisplay:10.37,2013-12-17 12:24:00,
2013-12-17 07:29:00,38.8,29.8,30.29,WSW,250,13.8,13.8,70,0.00,CLR,,0.00,WeatherDisplay:10.37,2013-12-17 12:29:00,
2013-12-17 07:34:00,38.8,29.8,30.29,SW,225,15.0,16.0,70,0.00,CLR,,0.00,WeatherDisplay:10.37,2013-12-17 12:34:00,
2013-12-17 07:39:00,38.8,29.8,30.29,WSW,237,10.6,11.5,70,0.00,CLR,,0.00,WeatherDisplay:10.37,2013-12-17 12:39:00,
2013-12-17 07:44:00,38.8,29.8,30.29,SW,225,15.0,15.0,70,0.00,CLR,,0.00,WeatherDisplay:10.37,2013-12-17 12:44:00,
2013-12-17 07:49:00,38.8,29.8,30.29,SSW,213,16.1,16.1,70,0.00,CLR,,0.00,WeatherDisplay:10.37,2013-12-17 12:49:00,
2013-12-17 07:54:00,38.8,30.2,30.29,SSW,196,15.3,15.3,71,0.00,CLR,,0.00,WeatherDisplay:10.37,2013-12-17 12:54:00,
2013-12-17 07:59:00,38.8,30.5,30.29,SSW,200,13.8,13.8,72,0.00,CLR,,0.00,WeatherDisplay:10.37,2013-12-17 12:59:00,
2013-12-17 08:04:00,38.8,30.2,30.29,SSW,203,13.8,13.8,71,0.00,CLR,,0.00,WeatherDisplay:10.37,2013-12-17 13:04:00,
2013-12-17 08:09:00,38.8,30.5,30.29,South,175,16.1,16.1,72,0.00,CLR,,0.00,WeatherDisplay:10.37,2013-12-17 13:09:00,
2013-12-17 08:14:00,38.9,30.6,30.29,SW,232,15.0,15.2,72,0.00,CLR,,0.00,WeatherDisplay:10.37,2013-12-17 13:14:00,
2013-12-17 08:19:00,38.9,30.6,30.29,WSW,243,17.3,17.3,72,0.00,CLR,,0.00,WeatherDisplay:10.37,2013-12-17 13:19:00,
2013-12-17 08:24:00,39.1,30.5,30.30,SSW,210,16.0,16.0,71,0.00,CLR,,0.00,WeatherDisplay:10.37,2013-12-17 13:24:00,
2013-12-17 08:29:00,39.1,30.8,30.29,SSW,204,13.8,13.8,72,0.00,CLR,,0.00,WeatherDisplay:10.37,2013-12-17 13:29:00,
2013-12-17 08:34:00,39.1,30.8,30.29,SSW,206,15.3,15.3,72,0.00,CLR,,0.00,WeatherDisplay:10.37,2013-12-17 13:34:00,
2013-12-17 08:39:00,39.1,31.2,30.29,SSW,198,15.0,15.0,73,0.00,CLR,,0.00,WeatherDisplay:10.37,2013-12-17 13:39:00,
2013-12-17 08:44:00,39.1,30.8,30.29,SSW,213,13.8,13.8,72,0.00,CLR,,0.00,WeatherDisplay:10.37,2013-12-17 13:44:00,
2013-12-17 08:49:00,39.2,30.9,30.29,SSW,208,13.8,13.8,72,0.00,CLR,,0.00,WeatherDisplay:10.37,2013-12-17 13:49:00,
2013-12-17 08:54:00,39.2,30.9,30.29,SSW,210,9.3,9.3,72,0.00,CLR,,0.00,WeatherDisplay:10.37,2013-12-17 13:54:00,
2013-12-17 08:59:00,39.2,30.9,30.29,SSE,167,6.9,6.9,72,0.00,CLR,,0.00,WeatherDisplay:10.37,2013-12-17 13:59:00,
2013-12-17 09:04:00,39.4,30.8,30.29,SSW,195,8.1,8.1,71,0.00,CLR,,0.00,WeatherDisplay:10.37,2013-12-17 14:04:00,
2013-12-17 09:09:00,39.6,31.3,30.29,South,172,9.2,9.2,72,0.00,CLR,,0.00,WeatherDisplay:10.37,2013-12-17 14:09:00,
2013-12-17 09:14:00,39.6,31.3,30.29,South,181,10.4,10.4,72,0.00,CLR,,0.00,WeatherDisplay:10.37,2013-12-17 14:14:00,
2013-12-17 09:19:00,39.6,31.7,30.29,South,185,15.0,15.0,73,0.00,CLR,,0.00,WeatherDisplay:10.37,2013-12-17 14:19:00,
2013-12-17 09:24:00,39.7,31.8,30.29,SW,223,19.6,19.6,73,0.00,CLR,,0.00,WeatherDisplay:10.37,2013-12-17 14:24:00,
2013-12-17 09:29:00,39.8,31.8,30.29,South,169,15.3,15.3,73,0.00,CLR,,0.00,WeatherDisplay:10.37,2013-12-17 14:29:00,
2013-12-17 09:32:00,39.9,31.9,30.30,South,181,10.4,10.4,73,0.00,CLR,,0.00,WeatherDisplay:10.37,2013-12-17 14:32:00,
2013-12-17 09:37:00,40.0,32.0,30.30,West,272,15.0,15.0,73,0.00,CLR,,0.00,WeatherDisplay:10.37,2013-12-17 14:37:00,
2013-12-17 09:42:00,40.3,32.3,30.29,SW,220,17.3,17.3,73,0.00,CLR,,0.00,WeatherDisplay:10.37,2013-12-17 14:42:00,
2013-12-17 09:47:00,40.5,32.5,30.30,SW,234,13.8,13.8,73,0.00,CLR,,0.00,WeatherDisplay:10.37,2013-12-17 14:47:00,
2013-12-17 09:52:00,40.7,32.7,30.30,SW,220,10.6,10.6,73,0.00,,,0.00,WeatherDisplay:10.37,2013-12-17 14:52:00,
2013-12-17 09:57:00,41.0,33.0,30.30,South,175,16.1,16.1,73,0.00,CLR,,0.00,WeatherDisplay:10.37,2013-12-17 14:57:00,
2013-12-17 10:02:00,41.4,33.0,30.30,SW,224,15.0,15.0,72,0.00,CLR,,0.00,WeatherDisplay:10.37,2013-12-17 15:02:00,
2013-12-17 10:07:00,41.6,32.9,30.30,SW,218,19.6,19.6,71,0.00,CLR,,0.00,WeatherDisplay:10.37,2013-12-17 15:07:00,
2013-12-17 10:12:00,41.8,33.4,30.29,SW,225,24.2,24.2,72,0.00,,,0.00,WeatherDisplay:10.37,2013-12-17 15:12:00,
2013-12-17 10:17:00,41.9,33.5,30.29,SW,233,19.6,19.6,72,0.00,CLR,,0.00,WeatherDisplay:10.37,2013-12-17 15:17:00,
2013-12-17 10:22:00,42.2,34.2,30.29,WSW,252,17.3,17.3,73,0.00,,,0.00,WeatherDisplay:10.37,2013-12-17 15:22:00,
2013-12-17 10:27:00,42.4,33.7,30.28,SW,226,13.8,13.8,71,0.00,CLR,,0.00,WeatherDisplay:10.37,2013-12-17 15:27:00,
2013-12-17 10:32:00,42.6,33.9,30.28,SW,232,23.9,23.9,71,0.00,CLR,,0.00,WeatherDisplay:10.37,2013-12-17 15:32:00,
2013-12-17 10:37:00,42.8,34.4,30.28,SW,225,16.1,16.1,72,0.00,CLR,,0.00,WeatherDisplay:10.37,2013-12-17 15:37:00,
2013-12-17 10:42:00,42.9,34.8,30.28,SSW,212,28.8,28.8,73,0.00,,,0.00,WeatherDisplay:10.37,2013-12-17 15:42:00,
2013-12-17 10:47:00,43.0,34.2,30.28,WSW,245,26.5,26.5,71,0.00,,,0.00,WeatherDisplay:10.37,2013-12-17 15:47:00,
2013-12-17 10:52:00,43.2,34.4,30.28,SSW,193,25.3,25.3,71,0.00,CLR,,0.00,WeatherDisplay:10.37,2013-12-17 15:52:00,
2013-12-17 10:57:00,43.3,34.9,30.27,South,174,21.9,21.9,72,0.00,CLR,,0.00,WeatherDisplay:10.37,2013-12-17 15:57:00,
2013-12-17 11:02:00,43.5,34.7,30.27,SSW,208,23.0,23.0,71,0.00,,,0.00,WeatherDisplay:10.37,2013-12-17 16:02:00,
2013-12-17 11:07:00,43.6,35.2,30.27,SW,229,26.5,26.5,72,0.00,,,0.00,WeatherDisplay:10.37,2013-12-17 16:07:00,
2013-12-17 11:12:00,43.7,34.6,30.27,South,191,21.9,21.9,70,0.00,CLR,,0.00,WeatherDisplay:10.37,2013-12-17 16:12:00,
2013-12-17 11:17:00,43.9,35.1,30.26,SSW,205,24.2,24.2,71,0.00,CLR,,0.00,WeatherDisplay:10.37,2013-12-17 16:17:00,
2013-12-17 11:22:00,44.1,34.9,30.26,SSE,156,16.1,16.1,70,0.00,CLR,,0.00,WeatherDisplay:10.37,2013-12-17 16:22:00,
2013-12-17 11:27:00,44.4,35.2,30.25,SSW,196,13.8,13.8,70,0.00,CLR,,0.00,WeatherDisplay:10.37,2013-12-17 16:27:00,
2013-12-17 11:32:00,44.6,35.4,30.25,South,170,26.5,26.5,70,0.00,,,0.00,WeatherDisplay:10.37,2013-12-17 16:32:00,
2013-12-17 11:37:00,44.8,35.6,30.24,SSW,205,31.1,31.1,70,0.00,CLR,,0.00,WeatherDisplay:10.37,2013-12-17 16:37:00,
2013-12-17 11:42:00,45.0,35.8,30.23,South,182,26.5,26.5,70,0.00,,,0.00,WeatherDisplay:10.37,2013-12-17 16:42:00,
2013-12-17 11:47:00,45.1,35.9,30.23,SSW,200,16.1,16.1,70,0.00,CLR,,0.00,WeatherDisplay:10.37,2013-12-17 16:47:00,
2013-12-17 11:52:00,45.4,35.8,30.23,SW,225,23.0,23.0,69,0.00,,,0.00,WeatherDisplay:10.37,2013-12-17 16:52:00,
2013-12-17 11:57:00,45.6,36.0,30.23,SSE,158,23.0,23.0,69,0.00,CLR,,0.00,WeatherDisplay:10.37,2013-12-17 16:57:00,
2013-12-17 12:02:00,45.8,35.8,30.23,SW,223,21.3,21.3,68,0.00,CLR,,0.00,WeatherDisplay:10.37,2013-12-17 17:02:00,
2013-12-17 12:07:00,46.0,35.7,30.22,SW,227,19.6,19.6,67,0.00,CLR,,0.00,WeatherDisplay:10.37,2013-12-17 17:07:00,
2013-12-17 12:12:00,46.2,36.2,30.21,SSW,194,16.1,16.1,68,0.00,CLR,,0.00,WeatherDisplay:10.37,2013-12-17 17:12:00,
2013-12-17 12:17:00,46.5,36.1,30.21,SW,233,21.9,21.9,67,0.00,CLR,,0.00,WeatherDisplay:10.37,2013-12-17 17:17:00,
2013-12-17 12:22:00,46.8,36.4,30.21,SSW,196,13.8,13.8,67,0.00,CLR,,0.00,WeatherDisplay:10.37,2013-12-17 17:22:00,
2013-12-17 12:27:00,47.1,36.7,30.20,SSW,211,26.6,26.6,67,0.00,CLR,,0.00,WeatherDisplay:10.37,2013-12-17 17:27:00,
2013-12-17 12:32:00,47.3,36.5,30.20,SSW,211,25.3,25.3,66,0.00,,,0.00,WeatherDisplay:10.37,2013-12-17 17:32:00,
2013-12-17 12:37:00,47.5,36.7,30.19,SSW,209,18.4,18.4,66,0.00,CLR,,0.00,WeatherDisplay:10.37,2013-12-17 17:37:00,
2013-12-17 12:42:00,47.7,36.5,30.19,SSE,158,23.0,23.0,65,0.00,CLR,,0.00,WeatherDisplay:10.37,2013-12-17 17:42:00,
2013-12-17 12:47:00,47.8,36.6,30.19,SSW,212,24.2,24.2,65,0.00,,,0.00,WeatherDisplay:10.37,2013-12-17 17:47:00,
2013-12-17 12:52:00,48.0,36.4,30.18,South,183,17.3,17.3,64,0.00,CLR,,0.00,WeatherDisplay:10.37,2013-12-17 17:52:00,
2013-12-17 12:57:00,48.1,36.9,30.18,South,191,20.7,20.7,65,0.00,CLR,,0.00,WeatherDisplay:10.37,2013-12-17 17:57:00,
2013-12-17 13:02:00,48.3,36.3,30.18,South,175,19.6,19.6,63,0.00,CLR,,0.00,WeatherDisplay:10.37,2013-12-17 18:02:00,
2013-12-17 13:07:00,48.6,36.6,30.18,South,175,21.9,21.9,63,0.00,,,0.00,WeatherDisplay:10.37,2013-12-17 18:07:00,
2013-12-17 13:12:00,48.8,36.8,30.17,South,183,19.6,19.6,63,0.00,CLR,,0.00,WeatherDisplay:10.37,2013-12-17 18:12:00,
2013-12-17 13:17:00,49.0,37.3,30.17,SSE,160,19.6,19.6,64,0.00,CLR,,0.00,WeatherDisplay:10.37,2013-12-17 18:17:00,
2013-12-17 13:22:00,49.2,36.7,30.17,SW,222,21.9,21.9,62,0.00,,,0.00,WeatherDisplay:10.37,2013-12-17 18:22:00,
2013-12-17 13:27:00,49.4,36.9,30.17,SSE,167,18.4,18.4,62,0.00,CLR,,0.00,WeatherDisplay:10.37,2013-12-17 18:27:00,
2013-12-17 13:32:00,49.5,37.0,30.17,WSW,243,17.3,17.3,62,0.00,,,0.00,WeatherDisplay:10.37,2013-12-17 18:32:00,
2013-12-17 13:37:00,49.5,37.0,30.17,SW,220,13.8,13.8,62,0.00,CLR,,0.00,WeatherDisplay:10.37,2013-12-17 18:37:00,
2013-12-17 13:42:00,49.5,37.0,30.17,SSW,210,15.0,15.0,62,0.00,CLR,,0.00,WeatherDisplay:10.37,2013-12-17 18:42:00,
2013-12-17 13:47:00,49.6,37.5,30.17,SSW,204,17.3,17.3,63,0.00,,,0.00,WeatherDisplay:10.37,2013-12-17 18:47:00,
2013-12-17 13:52:00,49.6,37.1,30.16,WSW,239,13.8,13.8,62,0.00,CLR,,0.00,WeatherDisplay:10.37,2013-12-17 18:52:00,
2013-12-17 13:57:00,49.8,36.9,30.16,SW,220,21.3,21.3,61,0.00,CLR,,0.00,WeatherDisplay:10.37,2013-12-17 18:57:00,
2013-12-17 14:02:00,49.8,36.5,30.16,SSE,164,19.6,19.6,60,0.00,,,0.00,WeatherDisplay:10.37,2013-12-17 19:02:00,
2013-12-17 14:07:00,50.0,37.1,30.16,WSW,243,21.9,21.9,61,0.00,CLR,,0.00,WeatherDisplay:10.37,2013-12-17 19:07:00,
2013-12-17 14:12:00,50.1,36.7,30.16,SW,214,9.2,9.2,60,0.00,,,0.00,WeatherDisplay:10.37,2013-12-17 19:12:00,
2013-12-17 14:17:00,50.3,36.9,30.16,SW,229,19.6,19.6,60,0.00,CLR,,0.00,WeatherDisplay:10.37,2013-12-17 19:17:00,
2013-12-17 14:22:00,50.4,37.0,30.15,WSW,253,24.2,24.2,60,0.00,,,0.00,WeatherDisplay:10.37,2013-12-17 19:22:00,
2013-12-17 14:27:00,50.5,37.1,30.15,SW,233,19.9,22.0,60,0.00,CLR,,0.00,WeatherDisplay:10.37,2013-12-17 19:27:00,
2013-12-17 14:32:00,50.5,37.1,30.15,SW,222,23.0,23.0,60,0.00,CLR,,0.00,WeatherDisplay:10.37,2013-12-17 19:32:00,
2013-12-17 14:37:00,50.7,37.7,30.15,SW,235,19.6,21.1,61,0.00,CLR,,0.00,WeatherDisplay:10.37,2013-12-17 19:37:00,
2013-12-17 14:42:00,50.8,37.4,30.15,South,178,21.9,21.9,60,0.00,,,0.00,WeatherDisplay:10.37,2013-12-17 19:42:00,
2013-12-17 14:47:00,51.0,37.6,30.14,SSW,202,19.6,19.6,60,0.00,CLR,,0.00,WeatherDisplay:10.37,2013-12-17 19:47:00,
2013-12-17 14:52:00,51.2,37.4,30.14,WSW,243,17.3,17.3,59,0.00,CLR,,0.00,WeatherDisplay:10.37,2013-12-17 19:52:00,
2013-12-17 14:57:00,51.3,37.4,30.15,WSW,237,25.3,25.3,59,0.00,,,0.00,WeatherDisplay:10.37,2013-12-17 19:57:00,
2013-12-17 15:02:00,51.4,37.5,30.14,SSW,212,14.6,14.6,59,0.00,CLR,,0.00,WeatherDisplay:10.37,2013-12-17 20:02:00,
2013-12-17 15:07:00,51.6,37.7,30.14,SW,222,25.3,25.3,59,0.00,,,0.00,WeatherDisplay:10.37,2013-12-17 20:07:00,
2013-12-17 15:12:00,51.6,37.3,30.15,SW,235,27.6,27.6,58,0.00,,,0.00,WeatherDisplay:10.37,2013-12-17 20:12:00,
2013-12-17 15:17:00,51.6,36.9,30.15,SW,235,32.2,32.2,57,0.00,,,0.00,WeatherDisplay:10.37,2013-12-17 20:17:00,
2013-12-17 15:22:00,51.6,36.9,30.14,WSW,252,26.5,26.5,57,0.00,,,0.00,WeatherDisplay:10.37,2013-12-17 20:22:00,
2013-12-17 15:27:00,51.6,36.9,30.14,SW,229,23.0,23.0,57,0.00,,,0.00,WeatherDisplay:10.37,2013-12-17 20:27:00,
2013-12-17 15:32:00,51.7,36.9,30.14,SSW,201,31.1,31.1,57,0.00,,,0.00,WeatherDisplay:10.37,2013-12-17 20:32:00,
2013-12-17 15:37:00,51.8,36.6,30.14,SSW,212,30.6,30.6,56,0.00,,,0.00,WeatherDisplay:10.37,2013-12-17 20:37:00,
2013-12-17 15:42:00,51.7,36.5,30.14,SW,232,32.2,32.2,56,0.00,,,0.00,WeatherDisplay:10.37,2013-12-17 20:42:00,
2013-12-17 15:47:00,51.7,36.0,30.13,WSW,237,25.3,25.3,55,0.00,,,0.00,WeatherDisplay:10.37,2013-12-17 20:47:00,
2013-12-17 15:52:00,51.5,35.9,30.14,WSW,252,28.8,28.8,55,0.00,,,0.00,WeatherDisplay:10.37,2013-12-17 20:52:00,
2013-12-17 15:57:00,51.4,35.8,30.15,WSW,237,26.5,26.5,55,0.00,,,0.00,WeatherDisplay:10.37,2013-12-17 20:57:00,
2013-12-17 16:02:00,51.2,36.5,30.15,West,266,28.8,28.8,57,0.00,,,0.00,WeatherDisplay:10.37,2013-12-17 21:02:00,
2013-12-17 16:08:00,51.1,36.4,30.15,SSW,199,31.1,31.1,57,0.00,,,0.00,WeatherDisplay:10.37,2013-12-17 21:08:00,
2013-12-17 16:13:00,51.0,35.8,30.15,WSW,243,31.1,31.1,56,0.00,,,0.00,WeatherDisplay:10.37,2013-12-17 21:13:00,
2013-12-17 16:18:00,50.9,36.2,30.15,WSW,245,24.2,24.2,57,0.00,CLR,,0.00,WeatherDisplay:10.37,2013-12-17 21:18:00,
2013-12-17 16:23:00,50.8,35.7,30.15,WSW,256,18.4,18.4,56,0.00,,,0.00,WeatherDisplay:10.37,2013-12-17 21:23:00,
2013-12-17 16:28:00,50.7,36.5,30.15,SW,223,30.6,30.6,58,0.00,,,0.00,WeatherDisplay:10.37,2013-12-17 21:28:00,
2013-12-17 16:33:00,50.6,36.4,30.16,WSW,245,19.6,19.6,58,0.00,,,0.00,WeatherDisplay:10.37,2013-12-17 21:33:00,
2013-12-17 16:38:00,50.5,36.3,30.16,SW,235,24.2,24.2,58,0.00,,,0.00,WeatherDisplay:10.37,2013-12-17 21:38:00,
2013-12-17 16:43:00,50.4,36.6,30.16,WSW,252,21.9,21.9,59,0.00,,,0.00,WeatherDisplay:10.37,2013-12-17 21:43:00,
2013-12-17 16:48:00,50.2,36.4,30.16,WSW,244,27.6,28.9,59,0.00,,,0.00,WeatherDisplay:10.37,2013-12-17 21:48:00,
2013-12-17 16:53:00,50.0,36.2,30.16,WSW,239,21.9,21.9,59,0.00,,,0.00,WeatherDisplay:10.37,2013-12-17 21:53:00,
2013-12-17 16:58:00,49.9,36.6,30.16,WSW,253,25.3,25.3,60,0.00,,,0.00,WeatherDisplay:10.37,2013-12-17 21:58:00,
2013-12-17 17:03:00,49.7,36.4,30.16,WSW,242,25.3,25.3,60,0.00,,,0.00,WeatherDisplay:10.37,2013-12-17 22:03:00,
2013-12-17 17:08:00,49.5,37.0,30.16,SW,233,19.6,19.6,62,0.00,,,0.00,WeatherDisplay:10.37,2013-12-17 22:08:00,
2013-12-17 17:13:00,49.3,37.2,30.15,SSW,208,18.6,18.6,63,0.00,CLR,,0.00,WeatherDisplay:10.37,2013-12-17 22:13:00,
2013-12-17 17:16:00,49.1,36.6,30.15,SW,225,27.6,27.6,62,0.00,,,0.00,WeatherDisplay:10.37,2013-12-17 22:16:00,
2013-12-17 17:21:00,48.9,36.4,30.15,WSW,251,10.4,10.4,62,0.00,CLR,,0.00,WeatherDisplay:10.37,2013-12-17 22:21:00,
2013-12-17 17:26:00,48.6,36.6,30.15,WSW,246,25.3,25.3,63,0.00,CLR,,0.00,WeatherDisplay:10.37,2013-12-17 22:26:00,
2013-12-17 17:31:00,48.4,37.2,30.14,West,262,21.9,21.9,65,0.00,,,0.00,WeatherDisplay:10.37,2013-12-17 22:31:00,
2013-12-17 17:36:00,48.2,37.0,30.13,SSW,208,19.6,19.6,65,0.00,,,0.00,WeatherDisplay:10.37,2013-12-17 22:36:00,
2013-12-17 17:41:00,48.0,36.8,30.14,WSW,248,24.2,24.2,65,0.00,,,0.00,WeatherDisplay:10.37,2013-12-17 22:41:00,
2013-12-17 17:46:00,47.8,36.6,30.14,WSW,243,27.6,27.6,65,0.00,,,0.00,WeatherDisplay:10.37,2013-12-17 22:46:00,
2013-12-17 17:51:00,47.7,36.9,30.15,WSW,254,18.4,18.4,66,0.00,,,0.00,WeatherDisplay:10.37,2013-12-17 22:51:00,
2013-12-17 17:56:00,47.6,36.8,30.16,SW,236,18.4,18.4,66,0.00,CLR,,0.00,WeatherDisplay:10.37,2013-12-17 22:56:00,
2013-12-17 18:01:00,47.6,36.8,30.16,West,262,16.1,16.1,66,0.00,CLR,,0.00,WeatherDisplay:10.37,2013-12-17 23:01:00,
2013-12-17 18:06:00,47.6,36.8,30.16,SSW,200,17.3,17.3,66,0.00,,,0.00,WeatherDisplay:10.37,2013-12-17 23:06:00,
2013-12-17 18:11:00,47.6,36.8,30.16,SW,230,18.6,20.3,66,0.00,CLR,,0.00,WeatherDisplay:10.37,2013-12-17 23:11:00,
2013-12-17 18:16:00,47.7,37.3,30.16,SSW,193,19.6,19.6,67,0.00,,,0.00,WeatherDisplay:10.37,2013-12-17 23:16:00,
2013-12-17 18:21:00,47.8,37.0,30.16,WSW,238,24.2,24.2,66,0.00,,,0.00,WeatherDisplay:10.37,2013-12-17 23:21:00,
2013-12-17 18:26:00,47.8,37.0,30.16,SW,234,28.8,28.8,66,0.00,,,0.00,WeatherDisplay:10.37,2013-12-17 23:26:00,
2013-12-17 18:31:00,47.8,37.0,30.16,WSW,237,25.3,25.3,66,0.00,,,0.00,WeatherDisplay:10.37,2013-12-17 23:31:00,
2013-12-17 18:36:00,47.9,37.1,30.16,WSW,240,19.6,19.6,66,0.00,CLR,,0.00,WeatherDisplay:10.37,2013-12-17 23:36:00,
2013-12-17 18:41:00,47.9,36.7,30.16,SW,224,28.8,28.8,65,0.00,,,0.00,WeatherDisplay:10.37,2013-12-17 23:41:00,
2013-12-17 18:46:00,47.9,37.5,30.16,SW,221,18.4,18.4,67,0.00,,,0.00,WeatherDisplay:10.37,2013-12-17 23:46:00,
2013-12-17 18:51:00,47.9,37.1,30.16,West,263,9.2,9.2,66,0.00,CLR,,0.00,WeatherDisplay:10.37,2013-12-17 23:51:00,
2013-12-17 18:56:00,47.8,37.0,30.17,SSW,207,16.1,16.1,66,0.00,CLR,,0.00,WeatherDisplay:10.37,2013-12-17 23:56:00,
2013-12-17 19:01:00,47.8,37.0,30.17,SW,229,17.3,17.3,66,0.00,CLR,,0.00,WeatherDisplay:10.37,2013-12-18 00:01:00,
2013-12-17 19:06:00,47.8,37.0,30.17,SW,216,10.4,10.4,66,0.00,CLR,,0.00,WeatherDisplay:10.37,2013-12-18 00:06:00,
2013-12-17 19:11:00,47.7,36.9,30.17,WSW,238,8.1,8.6,66,0.00,CLR,,0.00,WeatherDisplay:10.37,2013-12-18 00:11:00,
2013-12-17 19:16:00,47.7,36.9,30.17,South,191,23.0,23.0,66,0.00,,,0.00,WeatherDisplay:10.37,2013-12-18 00:16:00,
2013-12-17 19:21:00,47.7,37.3,30.17,SW,225,16.1,16.1,67,0.00,CLR,,0.00,WeatherDisplay:10.37,2013-12-18 00:21:00,
2013-12-17 19:26:00,47.6,37.2,30.17,SW,233,15.0,15.0,67,0.00,CLR,,0.00,WeatherDisplay:10.37,2013-12-18 00:26:00,
2013-12-17 19:31:00,47.6,37.2,30.17,SSW,211,17.3,18.8,67,0.00,CLR,,0.00,WeatherDisplay:10.37,2013-12-18 00:31:00,
2013-12-17 19:36:00,47.5,36.7,30.17,SSW,196,16.1,16.1,66,0.00,CLR,,0.00,WeatherDisplay:10.37,2013-12-18 00:36:00,
2013-12-17 19:41:00,47.3,36.5,30.17,SW,232,25.3,25.3,66,0.00,,,0.00,WeatherDisplay:10.37,2013-12-18 00:41:00,
2013-12-17 19:46:00,47.3,36.5,30.18,WSW,238,22.6,22.6,66,0.00,CLR,,0.00,WeatherDisplay:10.37,2013-12-18 00:46:00,
2013-12-17 19:51:00,47.2,36.4,30.17,South,184,10.4,10.4,66,0.00,CLR,,0.00,WeatherDisplay:10.37,2013-12-18 00:51:00,
2013-12-17 19:56:00,47.0,35.8,30.17,SSE,166,11.5,11.5,65,0.00,CLR,,0.00,WeatherDisplay:10.37,2013-12-18 00:56:00,
2013-12-17 20:01:00,46.9,35.7,30.18,North,351,17.3,17.3,65,0.00,CLR,,0.00,WeatherDisplay:10.37,2013-12-18 01:01:00,
2013-12-17 20:06:00,46.9,36.1,30.18,NNW,327,11.5,11.5,66,0.00,CLR,,0.00,WeatherDisplay:10.37,2013-12-18 01:06:00,
2013-12-17 20:11:00,46.8,36.0,30.19,WNW,300,26.5,26.5,66,0.00,,,0.00,WeatherDisplay:10.37,2013-12-18 01:11:00,
2013-12-17 20:16:00,46.7,36.3,30.18,SSW,210,13.8,13.8,67,0.00,CLR,,0.00,WeatherDisplay:10.37,2013-12-18 01:16:00,
2013-12-17 20:21:00,46.6,36.6,30.18,SSW,196,13.8,13.8,68,0.00,CLR,,0.00,WeatherDisplay:10.37,2013-12-18 01:21:00,
2013-12-17 20:26:00,46.4,36.0,30.18,NW,320,18.4,18.4,67,0.00,CLR,,0.00,WeatherDisplay:10.37,2013-12-18 01:26:00,
2013-12-17 20:31:00,46.2,36.2,30.17,South,169,12.7,14.5,68,0.00,CLR,,0.00,WeatherDisplay:10.37,2013-12-18 01:31:00,
2013-12-17 20:36:00,46.0,36.4,30.18,WNW,298,18.4,18.4,69,0.00,CLR,,0.00,WeatherDisplay:10.37,2013-12-18 01:36:00,
2013-12-17 20:41:00,45.8,36.2,30.19,SW,231,21.3,21.3,69,0.00,CLR,,0.00,WeatherDisplay:10.37,2013-12-18 01:41:00,
2013-12-17 20:46:00,45.6,36.4,30.19,WNW,291,5.8,5.8,70,0.00,CLR,,0.00,WeatherDisplay:10.37,2013-12-18 01:46:00,
2013-12-17 20:51:00,45.3,36.1,30.19,SW,225,16.1,16.1,70,0.00,CLR,,0.00,WeatherDisplay:10.37,2013-12-18 01:51:00,
2013-12-17 20:56:00,45.0,35.4,30.20,WSW,254,6.9,6.9,69,0.00,CLR,,0.00,WeatherDisplay:10.37,2013-12-18 01:56:00,
2013-12-17 21:01:00,44.7,35.5,30.21,West,267,13.1,13.1,70,0.00,CLR,,0.00,WeatherDisplay:10.37,2013-12-18 02:01:00,
2013-12-17 21:06:00,44.3,34.8,30.21,NW,310,5.8,5.8,69,0.00,CLR,,0.00,WeatherDisplay:10.37,2013-12-18 02:06:00,
2013-12-17 21:11:00,44.0,34.1,30.22,NNW,338,16.4,16.4,68,0.00,CLR,,0.00,WeatherDisplay:10.37,2013-12-18 02:11:00,
2013-12-17 21:16:00,43.5,33.3,30.22,NW,322,15.0,15.0,67,0.00,CLR,,0.00,WeatherDisplay:10.37,2013-12-18 02:16:00,
2013-12-17 21:21:00,43.2,33.0,30.23,WNW,297,10.4,10.4,67,0.00,CLR,,0.00,WeatherDisplay:10.37,2013-12-18 02:21:00,
2013-12-17 21:26:00,42.8,31.8,30.23,WNW,289,10.4,10.4,65,0.00,CLR,,0.00,WeatherDisplay:10.37,2013-12-18 02:26:00,
2013-12-17 21:31:00,42.4,31.8,30.23,South,184,15.0,15.0,66,0.00,CLR,,0.00,WeatherDisplay:10.37,2013-12-18 02:31:00,
2013-12-17 21:36:00,42.1,31.6,30.23,NE,48,4.6,4.6,66,0.00,CLR,,0.00,WeatherDisplay:10.37,2013-12-18 02:36:00,
2013-12-17 21:41:00,41.7,31.2,30.23,SE,137,9.2,9.2,66,0.00,CLR,,0.00,WeatherDisplay:10.37,2013-12-18 02:41:00,
2013-12-17 21:46:00,41.2,30.7,30.23,SW,220,12.7,13.5,66,0.00,CLR,,0.00,WeatherDisplay:10.37,2013-12-18 02:46:00,
2013-12-17 21:51:00,40.5,29.3,30.23,ENE,67,10.4,10.4,64,0.00,CLR,,0.00,WeatherDisplay:10.37,2013-12-18 02:51:00,
2013-12-17 21:56:00,40.0,28.4,30.24,NE,49,24.0,24.0,63,0.00,CLR,,0.00,WeatherDisplay:10.37,2013-12-18 02:56:00,
2013-12-17 22:01:00,39.5,28.3,30.24,ENE,69,16.1,16.1,64,0.00,,,0.00,WeatherDisplay:10.37,2013-12-18 03:01:00,
2013-12-17 22:06:00,39.1,27.9,30.24,NE,40,15.0,15.0,64,0.00,CLR,,0.00,WeatherDisplay:10.37,2013-12-18 03:06:00,
2013-12-17 22:11:00,38.7,28.3,30.24,ESE,115,10.4,10.4,66,0.00,CLR,,0.00,WeatherDisplay:10.37,2013-12-18 03:11:00,
2013-12-17 22:16:00,38.5,28.1,30.25,NE,52,6.9,6.9,66,0.00,CLR,,0.00,WeatherDisplay:10.37,2013-12-18 03:16:00,
2013-12-17 22:21:00,38.2,28.2,30.24,East,79,9.2,9.2,67,0.00,CLR,,0.00,WeatherDisplay:10.37,2013-12-18 03:21:00,
2013-12-17 22:26:00,37.9,27.9,30.24,NNE,23,13.8,13.8,67,0.00,CLR,,0.00,WeatherDisplay:10.37,2013-12-18 03:26:00,
2013-12-17 22:31:00,37.8,27.8,30.25,WNW,289,10.4,10.4,67,0.00,CLR,,0.00,WeatherDisplay:10.37,2013-12-18 03:31:00,
2013-12-17 22:36:00,37.5,27.9,30.25,NNE,31,11.5,11.5,68,0.00,CLR,,0.00,WeatherDisplay:10.37,2013-12-18 03:36:00,
2013-12-17 22:41:00,37.3,27.7,30.25,ENE,65,13.8,13.8,68,0.00,CLR,,0.00,WeatherDisplay:10.37,2013-12-18 03:41:00,
2013-12-17 22:46:00,37.0,27.8,30.25,ENE,69,19.6,19.6,69,0.00,CLR,,0.00,WeatherDisplay:10.37,2013-12-18 03:46:00,
2013-12-17 22:51:00,37.0,27.8,30.25,ENE,76,10.4,10.4,69,0.00,CLR,,0.00,WeatherDisplay:10.37,2013-12-18 03:51:00,
2013-12-17 22:56:00,37.0,27.8,30.25,NNE,30,8.1,8.1,69,0.00,CLR,,0.00,WeatherDisplay:10.37,2013-12-18 03:56:00,
2013-12-17 23:01:00,36.8,27.6,30.25,NE,56,12.7,12.7,69,0.00,CLR,,0.00,WeatherDisplay:10.37,2013-12-18 04:01:00,
2013-12-17 23:06:00,36.6,26.7,30.26,North,8,16.4,16.4,67,0.00,CLR,,0.00,WeatherDisplay:10.37,2013-12-18 04:06:00,
2013-12-17 23:11:00,36.5,27.3,30.26,NE,51,18.4,18.4,69,0.00,CLR,,0.00,WeatherDisplay:10.37,2013-12-18 04:11:00,
2013-12-17 23:16:00,36.4,26.5,30.25,ESE,114,15.0,15.0,67,0.00,CLR,,0.00,WeatherDisplay:10.37,2013-12-18 04:16:00,
2013-12-17 23:21:00,36.3,26.7,30.26,East,96,13.8,13.8,68,0.00,CLR,,0.00,WeatherDisplay:10.37,2013-12-18 04:21:00,
2013-12-17 23:26:00,36.1,26.6,30.25,NNE,15,21.9,21.9,68,0.00,CLR,,0.00,WeatherDisplay:10.37,2013-12-18 04:26:00,
2013-12-17 23:31:00,36.0,26.1,30.25,NNE,21,18.4,18.4,67,0.00,CLR,,0.00,WeatherDisplay:10.37,2013-12-18 04:31:00,
2013-12-17 23:36:00,35.8,26.3,30.25,North,1,10.9,10.9,68,0.00,CLR,,0.00,WeatherDisplay:10.37,2013-12-18 04:36:00,
2013-12-17 23:41:00,35.7,25.8,30.25,NE,52,12.7,12.7,67,0.00,CLR,,0.00,WeatherDisplay:10.37,2013-12-18 04:41:00,
2013-12-17 23:46:00,35.6,26.1,30.25,North,6,12.7,12.7,68,0.00,CLR,,0.00,WeatherDisplay:10.37,2013-12-18 04:46:00,
2013-12-17 23:51:00,35.4,25.5,30.26,NE,42,15.0,15.0,67,0.00,CLR,,0.00,WeatherDisplay:10.37,2013-12-18 04:51:00,
2013-12-17 23:56:00,35.3,25.8,30.26,NNE,25,10.4,10.4,68,0.00,CLR,,0.00,WeatherDisplay:10.37,2013-12-18 04:56:00,